Home   Weather   47°30'N, 67°23'W   Past weeks
Flag for Canada

Past Weather in 47°30'N, 67°23'W, Canada — Yesterday and Last 2 Weeks

Now
41 °F

Quite cool.


Feels Like: 41 °F
Forecast: 60 / 35 °F
Wind: 2 mph from South

Location: Riviere Du Loup

Current Time: Oct 14, 2019 at 5:41:58 am

Latest Report: Oct 14, 2019 at 4:00 am


Visibility: N/A

Pressure: 29.99 "Hg

Humidity: 75%

Dew Point: 33 °F

Location of 47°30'N, 67°23'WLocation

Past Weather in 47°30'N, 67°23'W — Graph

°F

47°30'N, 67°23'W Temperature Yesterday

Maximum temperature yesterday: 56 °F (at 4:00 pm)
Minimum temperature yesterday: 43 °F (at 6:00 am)
Average temperature yesterday: 47 °F

High & Low Weather Summary for the Past Weeks

 TemperatureHumidityPressure
High57 °F (Oct 7, 9:00 am)100% (Oct 1, 5:00 pm)30.53 "Hg (Oct 1, 5:00 pm)
Low32 °F (Sep 30, 9:00 am)46% (Oct 3, 5:00 pm)29.71 "Hg (Oct 1, 9:00 pm)
Average44 °F78%30.19 "Hg
* Reported Sep 29 4:00 am — Oct 14 4:00 am, 47°30'N, 67°23'W. Weather by CustomWeather, © 2019

Note: Actual official high and low records may vary slightly from our data, if they occured in-between our weather recording intervals... More about our weather records

Advertising

47°30'N, 67°23'W Weather History for the Previous 24 Hours

Scroll right to see more
 ConditionsComfort  
Time TempWeatherWind HumidityBarometerVisibility
4:00 am
Mon, Oct 14
41 °FQuite cool.2 mph75%29.99 "HgN/A
3:00 am42 °FQuite cool.3 mph73%30.00 "HgN/A
2:00 am43 °FQuite cool.5 mph73%30.00 "HgN/A
1:00 am44 °FQuite cool.3 mph75%29.99 "HgN/A
12:00 am45 °FQuite cool.3 mph77%29.99 "HgN/A
11:00 pm
Sun, Oct 13
45 °FCool.3 mph77%30.00 "HgN/A
10:00 pm44 °FQuite cool.3 mph86%29.99 "HgN/A
9:00 pm48 °FCool.5 mph76%29.98 "HgN/A
8:00 pm51 °FCool.8 mph67%29.99 "HgN/A
7:00 pm52 °FCool.8 mph73%29.97 "HgN/A
6:00 pm52 °FCool.8 mph71%29.97 "HgN/A
5:00 pm53 °FCool.7 mph73%29.97 "HgN/A
4:00 pm56 °FCool.7 mph76%29.97 "HgN/A
3:00 pm52 °FCool.5 mph87%29.99 "HgN/A
2:00 pm51 °FCool.5 mph89%29.99 "HgN/A
1:00 pm51 °FCool.6 mph91%30.01 "HgN/A
12:00 pm49 °FCool.3 mph92%30.01 "HgN/A
11:00 am48 °FCool.5 mph96%30.00 "HgN/A
10:00 am44 °FQuite cool.2 mph100%30.00 "HgN/A
9:00 am44 °FQuite cool.1 mph97%29.99 "HgN/A
8:00 am44 °FQuite cool.1 mph97%29.97 "HgN/A
7:00 am44 °FQuite cool.No wind97%29.96 "HgN/A
6:00 am43 °FQuite cool.No wind96%29.95 "HgN/A
5:00 am44 °FQuite cool.2 mph95%29.96 "HgN/A
Weather by CustomWeather, © 2019

See weather overview